Location: ??????
(56.0120°N, 39.1740°E)
Time: 22:34:17
(UTC+00:00)

NOAA 11 - Pass Details

Date: 14 April 2026
Orbit: 831 x 848 km, 98.6° (Epoch: 13 May)

Event Time Altitude Azimuth Distance (km) Brightness Sun altitude
Rises 23:43:24 0° 17° (NNE) 3,393 8.7 -18.2°
Reaches altitude 10° 23:45:47 10° 21° (NNE) 2,454 7.8 -18.0°
Maximum altitude 23:51:12 65° 103° (ESE) 915 4.4 -17.5°
Enters shadow 23:54:54 21° 181° (S) 1,810 5.5 -17.2°
